{"data":{"norad_id":47832,"epoch":"2026-09-19T21:45:11.291616Z","epoch_age_seconds":81214,"freshness":"FRESH","line1":"1 47832U 21018AX  26262.90638069  .00000705  00000+0  34468-4 0  9995","line2":"2 47832  53.1608  61.8616 0001196  91.5685 268.5454 15.31714406306441","mean_motion":15.31714406,"eccentricity":0.0001196,"inclination_deg":53.1608,"raan_deg":61.8616,"arg_perigee_deg":91.5685,"mean_anomaly_deg":268.5454,"bstar":3.4468e-5,"rev_number":30644,"period_min":94.012303753184,"perigee_km":469.87793147323,"apogee_km":471.51617257847,"semimajor_km":6848.8340520258,"source":"CELESTRAK","updated_at":"2026-09-20T09:00:38.751880Z"}}